User: anonymous   Login
Location: Vancouver
(49.2500°N, 123.1330°W)
Time: 03:39:27
(UTC-07:00)
Language:

Cosmos 1408 Rocket - Orbit

View from above orbital plane
View from above orbital plane
View from above satellite
View from above satellite

Ground track
Ground track

The orbit data is extracted from the following two-line orbital elements,

1 13553U 82092B   16205.06095866  .00000104  00000-0  95030-5 0  9999
2 13553  82.5686 180.7070 0022786  54.9392  11.6930 14.84066591828220
Epoch (UTC): 23 July 2016 01:27:46
Eccentricity: 0.0022786
inclination: 82.5686°
perigee height: 600 km
apogee height: 632 km
right ascension of ascending node: 180.7070°
argument of perigee: 54.9392°
revolutions per day: 14.84066591
mean anomaly at epoch: 11.6930°
orbit number at epoch: 82822

The dashed part of the orbit path shows where the satellite is in the earth's shadow,  

DLR